TimeEST,TemperatureF,Dew PointF,Humidity,Sea Level PressureIn,VisibilityMPH,Wind Direction,Wind SpeedMPH,Gust SpeedMPH,PrecipitationIn,Events,Conditions,WindDirDegrees,DateUTC
12:15 AM,23.0,14.0,68,30.47,10.0,North,3.5,-,N/A,,Clear,360,2013-01-11 05:15:00
12:35 AM,24.8,17.6,74,30.47,10.0,NNW,5.8,-,N/A,,Clear,330,2013-01-11 05:35:00
12:55 AM,24.8,15.8,69,30.46,10.0,NNE,4.6,-,N/A,,Clear,30,2013-01-11 05:55:00
1:15 AM,23.0,14.0,68,30.46,10.0,Calm,Calm,-,N/A,,Clear,0,2013-01-11 06:15:00
1:35 AM,23.0,15.8,74,30.47,10.0,Calm,Calm,-,N/A,,Clear,0,2013-01-11 06:35:00
1:55 AM,23.0,15.8,74,30.46,10.0,Calm,Calm,-,N/A,,Clear,0,2013-01-11 06:55:00
2:15 AM,19.4,12.2,74,30.46,10.0,Calm,Calm,-,N/A,,Clear,0,2013-01-11 07:15:00
2:35 AM,19.4,12.2,74,30.46,10.0,Calm,Calm,-,N/A,,Clear,0,2013-01-11 07:35:00
2:55 AM,23.0,15.8,74,30.46,10.0,NNE,3.5,-,N/A,,Clear,30,2013-01-11 07:55:00
3:15 AM,19.4,12.2,74,30.46,10.0,Calm,Calm,-,N/A,,Clear,0,2013-01-11 08:15:00
3:35 AM,21.2,14.0,74,30.46,10.0,Calm,Calm,-,N/A,,Clear,0,2013-01-11 08:35:00
3:55 AM,21.2,15.8,80,30.45,10.0,Calm,Calm,-,N/A,,Clear,0,2013-01-11 08:55:00
4:15 AM,19.4,14.0,80,30.44,10.0,NNE,4.6,-,N/A,,Clear,20,2013-01-11 09:15:00
4:35 AM,21.2,14.0,74,30.43,10.0,Calm,Calm,-,N/A,,Clear,0,2013-01-11 09:35:00
4:55 AM,17.6,12.2,79,30.43,10.0,Calm,Calm,-,N/A,,Clear,0,2013-01-11 09:55:00
5:15 AM,17.6,14.0,86,30.44,10.0,Calm,Calm,-,N/A,,Clear,0,2013-01-11 10:15:00
5:35 AM,17.6,12.2,79,30.44,10.0,Calm,Calm,-,N/A,,Clear,0,2013-01-11 10:35:00
5:55 AM,17.6,12.2,79,30.44,10.0,Calm,Calm,-,N/A,,Clear,0,2013-01-11 10:55:00
6:15 AM,21.2,17.6,86,30.44,10.0,North,3.5,-,N/A,,Clear,360,2013-01-11 11:15:00
6:35 AM,17.6,15.8,93,30.45,10.0,Calm,Calm,-,N/A,,Clear,0,2013-01-11 11:35:00
6:55 AM,17.6,12.2,79,30.46,10.0,Calm,Calm,-,N/A,,Clear,0,2013-01-11 11:55:00
7:15 AM,17.6,12.2,79,30.47,8.0,Calm,Calm,-,N/A,,Clear,0,2013-01-11 12:15:00
7:35 AM,17.6,15.8,93,30.48,10.0,NW,3.5,-,N/A,,Clear,320,2013-01-11 12:35:00
7:55 AM,21.2,17.6,86,30.49,10.0,WNW,3.5,-,N/A,,Clear,300,2013-01-11 12:55:00
8:15 AM,23.0,15.8,74,30.48,10.0,Calm,Calm,-,N/A,,Clear,0,2013-01-11 13:15:00
8:35 AM,23.0,15.8,74,30.49,10.0,NNE,4.6,-,N/A,,Clear,20,2013-01-11 13:35:00
8:55 AM,24.8,15.8,69,30.47,10.0,NE,3.5,-,N/A,,Clear,40,2013-01-11 13:55:00
9:15 AM,26.6,17.6,69,30.47,10.0,Calm,Calm,-,N/A,,Clear,0,2013-01-11 14:15:00
9:55 AM,26.6,17.6,69,30.47,10.0,North,3.5,-,N/A,,Clear,360,2013-01-11 14:55:00
10:15 AM,28.4,15.8,59,30.46,10.0,NE,3.5,-,N/A,,Clear,50,2013-01-11 15:15:00
10:35 AM,28.4,15.8,59,30.45,10.0,Calm,Calm,-,N/A,,Clear,0,2013-01-11 15:35:00
10:55 AM,28.4,15.8,59,30.43,10.0,NNE,3.5,-,N/A,,Clear,30,2013-01-11 15:55:00
11:15 AM,28.4,15.8,59,30.42,10.0,Calm,Calm,-,N/A,,Clear,0,2013-01-11 16:15:00
11:35 AM,30.2,15.8,55,30.39,10.0,East,3.5,-,N/A,,Clear,100,2013-01-11 16:35:00
11:55 AM,30.2,17.6,60,30.37,10.0,Calm,Calm,-,N/A,,Clear,0,2013-01-11 16:55:00
12:15 PM,32.0,17.6,55,30.37,10.0,NE,3.5,-,N/A,,Clear,50,2013-01-11 17:15:00
12:55 PM,33.8,17.6,52,30.36,10.0,SW,3.5,-,N/A,,Clear,220,2013-01-11 17:55:00
1:15 PM,33.8,17.6,52,30.36,10.0,Calm,Calm,-,N/A,,Clear,0,2013-01-11 18:15:00
1:35 PM,33.8,15.8,48,30.36,10.0,Calm,Calm,-,N/A,,Clear,0,2013-01-11 18:35:00
1:55 PM,33.8,15.8,48,30.35,10.0,SW,3.5,-,N/A,,Clear,230,2013-01-11 18:55:00
2:15 PM,35.6,15.8,44,30.34,10.0,Calm,Calm,-,N/A,,Clear,0,2013-01-11 19:15:00
2:35 PM,33.8,17.6,52,30.33,10.0,WSW,3.5,-,N/A,,Clear,240,2013-01-11 19:35:00
2:55 PM,33.8,15.8,48,30.32,10.0,Calm,Calm,-,N/A,,Clear,0,2013-01-11 19:55:00
3:15 PM,33.8,15.8,48,30.32,10.0,Calm,Calm,-,N/A,,Clear,0,2013-01-11 20:15:00
3:35 PM,33.8,15.8,48,30.30,10.0,Calm,Calm,-,N/A,,Clear,0,2013-01-11 20:35:00
3:55 PM,33.8,17.6,52,30.30,10.0,Calm,Calm,-,N/A,,Clear,0,2013-01-11 20:55:00
4:15 PM,33.8,19.4,56,30.29,10.0,Calm,Calm,-,N/A,,Clear,0,2013-01-11 21:15:00
4:35 PM,33.8,17.6,52,30.29,10.0,Calm,Calm,-,N/A,,Mostly Cloudy,0,2013-01-11 21:35:00
4:55 PM,33.8,15.8,48,30.28,10.0,Calm,Calm,-,N/A,,Overcast,0,2013-01-11 21:55:00
5:15 PM,33.8,17.6,52,30.27,10.0,Calm,Calm,-,N/A,,Overcast,0,2013-01-11 22:15:00
5:35 PM,33.8,17.6,52,30.27,10.0,Calm,Calm,-,N/A,,Overcast,0,2013-01-11 22:35:00
5:55 PM,33.8,17.6,52,30.27,10.0,South,3.5,-,N/A,,Mostly Cloudy,190,2013-01-11 22:55:00
6:15 PM,33.8,17.6,52,30.29,10.0,Calm,Calm,-,N/A,,Overcast,0,2013-01-11 23:15:00
6:35 PM,33.8,17.6,52,30.29,10.0,South,3.5,-,N/A,,Mostly Cloudy,180,2013-01-11 23:35:00
6:55 PM,32.0,19.4,60,30.28,10.0,Calm,Calm,-,N/A,,Partly Cloudy,0,2013-01-11 23:55:00
7:15 PM,32.0,19.4,60,30.28,10.0,Calm,Calm,-,N/A,,Partly Cloudy,0,2013-01-12 00:15:00
7:35 PM,32.0,21.2,64,30.27,10.0,Calm,Calm,-,N/A,,Clear,0,2013-01-12 00:35:00
7:55 PM,32.0,19.4,60,30.27,10.0,Calm,Calm,-,N/A,,Clear,0,2013-01-12 00:55:00
8:15 PM,32.0,19.4,60,30.27,10.0,Calm,Calm,-,N/A,,Mostly Cloudy,0,2013-01-12 01:15:00
8:35 PM,32.0,21.2,64,30.26,10.0,Calm,Calm,-,N/A,,Overcast,0,2013-01-12 01:35:00
8:55 PM,32.0,19.4,60,30.26,10.0,Calm,Calm,-,N/A,,Overcast,0,2013-01-12 01:55:00
9:15 PM,32.0,19.4,60,30.25,10.0,Calm,Calm,-,N/A,,Overcast,0,2013-01-12 02:15:00
9:35 PM,32.0,21.2,64,30.24,10.0,Calm,Calm,-,N/A,,Overcast,0,2013-01-12 02:35:00
9:55 PM,32.0,21.2,64,30.24,10.0,Calm,Calm,-,N/A,,Overcast,0,2013-01-12 02:55:00
10:15 PM,32.0,21.2,64,30.23,10.0,Calm,Calm,-,N/A,,Overcast,0,2013-01-12 03:15:00
10:55 PM,32.0,21.2,64,30.23,10.0,Calm,Calm,-,N/A,,Overcast,0,2013-01-12 03:55:00
11:15 PM,32.0,23.0,69,30.22,10.0,Calm,Calm,-,N/A,,Overcast,0,2013-01-12 04:15:00
11:35 PM,32.0,24.8,75,30.22,10.0,Calm,Calm,-,N/A,,Overcast,0,2013-01-12 04:35:00
11:55 PM,32.0,24.8,75,30.21,10.0,Calm,Calm,-,N/A,,Overcast,0,2013-01-12 04:55:00